EW4711 Weather Reports


Display with metric or nautical units.
time (UTC)temp
F
wind
direction
speed
MPH
gust
MPH
rain 1hr
in
rain 24hr
in
rain mn
in
humidity
%
barometer
mb
20260902113103 72 306 2.0 3.0 0.00 0.00 0.00 99 1012.1
20260902112603 72 239 1.0 8.0 0.00 0.00 0.00 99 1011.7
20260902112103 72 259 2.0 9.0 0.00 0.00 0.00 99 1012.0
20260902111602 72 262 2.0 7.0 0.00 0.00 0.00 99 1012.0
20260902111103 72 248 2.0 6.0 0.00 0.00 0.00 99 1011.9
20260902110603 72 240 2.0 9.0 0.00 0.00 0.00 99 1011.7
20260902110103 72 232 2.0 5.0 0.00 0.00 0.00 99 1011.5
20260902105603 72 242 2.0 9.0 0.00 0.00 0.00 99 1011.7
20260902105103 72 230 1.0 5.0 0.00 0.00 0.00 99 1011.7
20260902104603 72 246 1.0 5.0 0.00 0.00 0.00 99 1011.5
20260902103603 72 216 2.0 6.0 0.00 0.00 0.00 99 1011.6
20260902103104 72 238 2.0 8.0 0.00 0.00 0.00 99 1011.4
20260902102602 72 245 1.0 3.0 0.00 0.00 0.00 99 1011.4
20260902102103 72 214 2.0 3.0 0.00 0.00 0.00 99 1011.6
20260902101604 72 216 2.0 3.0 0.00 0.00 0.00 99 1011.8
20260902101103 72 229 1.0 3.0 0.00 0.00 0.00 99 1011.8
20260902100603 72 249 1.0 3.0 0.00 0.00 0.00 99 1011.9
20260902095603 72 222 1.0 3.0 0.00 0.00 0.00 99 1011.6
20260902095103 72 232 1.0 3.0 0.00 0.00 0.00 99 1011.7
20260902094603 72 235 1.0 3.0 0.00 0.00 0.00 99 1011.7
20260902094103 72 233 1.0 7.0 0.00 0.00 0.00 99 1011.8
20260902093603 71 240 2.0 3.0 0.00 0.00 0.00 99 1011.9
20260902093103 71 261 1.0 3.0 0.00 0.00 0.00 99 1012.2
20260902091603 71 218 1.0 3.0 0.00 0.00 0.00 99 1012.6
20260902091103 71 216 1.0 3.0 0.00 0.00 0.00 99 1012.6
20260902085603 71 235 1.0 3.0 0.00 0.00 0.00 99 1012.7
20260902084603 71 249 1.0 3.0 0.00 0.00 0.00 99 1012.8
20260902084103 71 249 1.0 3.0 0.00 0.00 0.00 99 1012.7
20260902083604 71 230 1.0 3.0 0.00 0.00 0.00 99 1012.8
20260902083103 71 262 1.0 3.0 0.00 0.00 0.00 99 1012.7
20260902082103 71 226 2.0 3.0 0.00 0.00 0.00 99 1012.7
20260902081103 71 224 1.0 5.0 0.00 0.00 0.00 99 1013.1
20260902080603 71 236 2.0 5.0 0.00 0.00 0.00 99 1013.2
20260902075603 71 225 2.0 3.0 0.00 0.00 0.00 99 1013.2
20260902074603 71 228 1.0 3.0 0.00 0.01 0.00 99 1013.0
20260902074103 70 213 1.0 2.0 0.00 0.01 0.00 99 1013.0
20260902073604 70 213 1.0 3.0 0.00 0.01 0.00 99 1013.1
20260902073104 70 192 1.0 3.0 0.00 0.01 0.00 99 1013.3
20260902072605 70 235 1.0 2.0 0.00 0.01 0.00 99 1013.3
20260902072103 70 196 0.0 1.0 0.00 0.01 0.00 99 1013.3
20260902070603 70 217 1.0 5.0 0.00 0.01 0.00 99 1013.6
20260902065103 70 234 1.0 3.0 0.00 0.01 0.00 99 1013.6
20260902064103 71 184 1.0 3.0 0.00 0.01 0.00 99 1013.5
20260902063603 71 195 1.0 3.0 0.00 0.01 0.00 99 1013.5
20260902063103 71 212 1.0 2.0 0.00 0.01 0.00 98 1013.5
20260902062604 71 209 0.0 3.0 0.00 0.01 0.00 98 1013.5
20260902062103 71 197 1.0 3.0 0.00 0.01 0.00 98 1013.4
20260902061603 71 186 1.0 3.0 0.00 0.01 0.00 99 1013.4
20260902061104 71 181 1.0 3.0 0.00 0.01 0.00 99 1013.4
20260902060604 71 184 1.0 3.0 0.00 0.01 0.00 99 1013.6
20260902055603 71 205 0.0 3.0 0.00 0.01 0.00 99 1013.7
20260902055103 71 200 0.0 5.0 0.00 0.01 0.00 99 1013.6
20260902054603 71 182 1.0 3.0 0.00 0.01 0.00 98 1013.7
20260902054103 71 170 1.0 3.0 0.00 0.01 0.00 98 1013.5
20260902053603 71 196 2.0 6.0 0.00 0.01 0.00 98 1013.4
20260902053103 71 173 2.0 7.0 0.00 0.01 0.00 98 1013.3
20260902052603 71 170 2.0 3.0 0.00 0.01 0.00 98 1013.4
20260902052104 71 174 1.0 2.0 0.00 0.01 0.00 98 1013.6
20260902051603 71 177 1.0 3.0 0.00 0.01 0.00 98 1013.6
20260902051104 71 184 1.0 3.0 0.00 0.01 0.00 98 1013.6
20260902045103 71 160 2.0 3.0 0.00 0.01 0.00 98 1013.6
20260902044603 71 187 1.0 3.0 0.00 0.01 0.00 98 1013.6
20260902044103 71 170 0.0 2.0 0.00 0.01 0.00 98 1013.7
20260902043103 71 184 0.0 0.0 0.00 0.01 0.00 98 1013.6
20260902042603 71 184 0.0 1.0 0.00 0.01 0.00 98 1013.7
20260902042104 71 184 0.0 2.0 0.00 0.01 0.00 98 1013.5
20260902041603 71 176 0.0 3.0 0.00 0.01 0.00 98 1013.4
20260902041104 72 166 1.0 2.0 0.00 0.01 0.00 98 1013.4
20260902040103 72 178 1.0 3.0 0.00 0.01 0.00 98 1013.4
20260902035603 72 181 1.0 2.0 0.00 0.01 0.01 98 1013.4
20260902035104 72 181 1.0 2.0 0.00 0.01 0.01 98 1013.4
20260902034603 72 181 1.0 1.0 0.00 0.01 0.01 98 1013.4
20260902034103 72 181 0.0 1.0 0.00 0.01 0.01 98 1013.4
20260902033603 72 181 0.0 3.0 0.00 0.01 0.01 98 1013.3
20260902033103 72 172 1.0 2.0 0.00 0.01 0.01 98 1013.4
20260902032603 72 171 1.0 3.0 0.00 0.01 0.01 98 1013.3
20260902032103 72 167 1.0 3.0 0.00 0.01 0.01 97 1013.3
20260902031603 73 165 1.0 2.0 0.00 0.01 0.01 97 1013.3
20260902031104 73 177 1.0 3.0 0.00 0.01 0.01 98 1013.3
20260902030603 73 166 1.0 3.0 0.00 0.01 0.01 98 1013.3
20260902030104 73 158 2.0 3.0 0.00 0.01 0.01 98 1013.3
20260902025604 73 167 2.0 3.0 0.00 0.01 0.01 97 1013.4
20260902025104 73 170 1.0 3.0 0.00 0.01 0.01 97 1013.4
20260902024603 73 161 2.0 3.0 0.00 0.01 0.01 97 1013.4
20260902024103 73 167 2.0 3.0 0.00 0.01 0.01 97 1013.4
20260902023603 74 171 1.0 3.0 0.00 0.01 0.01 97 1013.4
20260902022603 74 165 1.0 3.0 0.00 0.01 0.01 97 1013.4
20260902021603 73 176 2.0 3.0 0.00 0.01 0.01 97 1013.5
20260902021103 73 170 2.0 3.0 0.00 0.01 0.01 97 1013.4
20260902020603 73 166 2.0 3.0 0.00 0.01 0.01 97 1013.4
20260902014103 74 156 1.0 3.0 0.00 0.01 0.01 96 1013.4
20260902013603 74 145 1.0 3.0 0.00 0.01 0.01 96 1013.4
20260902012604 74 116 2.0 3.0 0.00 0.06 0.01 96 1013.5
20260902012103 74 137 2.0 3.0 0.00 0.07 0.01 96 1013.4
20260902011104 74 149 1.0 2.0 0.00 0.07 0.01 96 1013.3
20260902010603 74 153 1.0 3.0 0.00 0.07 0.01 95 1013.3
20260902005603 75 127 1.0 2.0 0.00 0.07 0.01 95 1013.1
20260902005103 75 144 0.0 0.0 0.00 0.07 0.01 95 1013.1
20260902004604 75 144 0.0 0.0 0.00 0.07 0.01 95 1012.9
20260902004104 75 144 2.0 3.0 0.00 0.07 0.01 94 1013.0
20260902003604 75 129 1.0 3.0 0.00 0.07 0.01 94 1012.9
20260902003104 75 128 2.0 3.0 0.00 0.07 0.01 94 1012.8
20260902002604 76 123 1.0 3.0 0.00 0.07 0.01 94 1012.8
20260902001603 76 116 0.0 2.0 0.00 0.07 0.01 93 1012.7
20260902000604 77 116 1.0 3.0 0.00 0.07 0.01 93 1012.6
20260901235603 77 116 1.0 2.0 0.00 0.07 0.01 92 1012.4
20260901235103 77 116 1.0 2.0 0.00 0.07 0.01 92 1012.4
20260901234605 78 116 0.0 2.0 0.00 0.07 0.01 92 1012.4
20260901233604 78 116 2.0 3.0 0.00 0.07 0.01 91 1012.3
20260901233103 79 116 1.0 2.0 0.00 0.07 0.01 91 1012.3
20260901232603 79 116 1.0 3.0 0.00 0.07 0.01 90 1012.3
20260901232103 79 176 1.0 2.0 0.00 0.07 0.01 90 1012.4
20260901231604 79 284 1.0 1.0 0.00 0.07 0.01 90 1012.5
20260901231105 80 284 0.0 2.0 0.00 0.07 0.01 90 1012.6
20260901230603 80 284 0.0 1.0 0.00 0.07 0.01 89 1012.6
20260901230103 80 284 0.0 2.0 0.00 0.07 0.01 89 1012.7
20260901225603 80 180 1.0 2.0 0.00 0.07 0.01 88 1012.7
20260901225103 80 108 0.0 1.0 0.00 0.07 0.01 89 1012.7
20260901224603 80 108 1.0 2.0 0.00 0.07 0.01 89 1012.7
20260901224103 80 108 1.0 3.0 0.00 0.07 0.01 88 1012.7
20260901223603 81 128 0.0 1.0 0.00 0.07 0.01 88 1012.8
20260901222603 81 134 2.0 3.0 0.00 0.07 0.01 87 1012.8
20260901221604 81 105 2.0 3.0 0.00 0.07 0.01 87 1012.8
20260901221103 82 118 3.0 5.0 0.00 0.07 0.01 87 1012.7
20260901220604 82 138 3.0 7.0 0.00 0.07 0.01 87 1012.7
20260901215603 82 106 2.0 5.0 0.00 0.07 0.01 87 1012.6
20260901214603 81 131 2.0 5.0 0.00 0.07 0.01 87 1012.7
20260901213604 82 127 3.0 5.0 0.00 0.07 0.01 86 1012.6
20260901213103 82 106 2.0 3.0 0.00 0.07 0.01 85 1012.7
20260901212603 82 129 2.0 3.0 0.00 0.07 0.01 84 1012.8
20260901212103 83 106 2.0 5.0 0.00 0.07 0.01 83 1012.7
20260901211604 83 79 2.0 3.0 0.00 0.07 0.01 81 1012.7
20260901210603 83 295 0.0 3.0 0.00 0.07 0.01 82 1012.6
20260901205604 84 318 1.0 3.0 0.00 0.07 0.01 82 1012.6
20260901205103 83 305 1.0 3.0 0.00 0.07 0.01 81 1012.5
20260901204603 84 255 0.0 3.0 0.00 0.07 0.01 80 1012.5
20260901203604 84 254 1.0 3.0 0.00 0.07 0.01 80 1012.6
20260901203105 85 269 2.0 3.0 0.00 0.07 0.01 80 1012.6
20260901202604 85 287 1.0 2.0 0.00 0.07 0.01 80 1012.6
20260901202104 85 230 1.0 2.0 0.00 0.07 0.01 79 1012.6
20260901201604 85 329 1.0 3.0 0.00 0.07 0.01 81 1012.7
20260901201103 84 310 0.0 6.0 0.00 0.07 0.01 81 1012.8
20260901200603 84 281 1.0 3.0 0.00 0.07 0.01 81 1012.8
20260901200104 84 128 2.0 3.0 0.00 0.07 0.01 81 1012.8
20260901195603 84 125 0.0 3.0 0.00 0.07 0.01 84 1012.8
20260901195103 83 106 2.0 5.0 0.00 0.07 0.01 83 1012.8
20260901194604 82 53 1.0 3.0 0.00 0.07 0.01 84 1012.8
20260901194104 82 73 1.0 3.0 0.00 0.07 0.01 85 1012.9
20260901193603 83 75 2.0 3.0 0.00 0.07 0.01 85 1012.9
20260901192604 83 111 3.0 5.0 0.00 0.08 0.01 84 1012.8
20260901192103 82 96 2.0 5.0 0.00 0.08 0.01 84 1012.8
20260901191604 82 93 3.0 5.0 0.00 0.08 0.01 84 1013.0
20260901190603 81 353 1.0 6.0 0.00 0.08 0.01 85 1013.0
20260901190103 81 349 2.0 7.0 0.00 0.08 0.01 85 1013.1
20260901185603 81 47 2.0 5.0 0.00 0.08 0.01 85 1013.1
20260901185103 81 25 1.0 3.0 0.00 0.09 0.01 85 1013.0
20260901184603 81 17 1.0 6.0 0.00 0.09 0.01 84 1013.1
20260901184104 81 7 3.0 6.0 0.00 0.09 0.01 86 1013.1
20260901183603 81 350 1.0 2.0 0.00 0.09 0.01 85 1013.1
20260901183103 81 354 1.0 3.0 0.00 0.09 0.01 84 1013.1
20260901182603 81 5 2.0 6.0 0.00 0.09 0.01 85 1013.1
20260901182104 81 359 2.0 7.0 0.00 0.09 0.01 84 1013.1
20260901181603 81 356 2.0 7.0 0.00 0.09 0.01 85 1013.2
20260901180604 81 19 2.0 6.0 0.00 0.09 0.01 85 1013.1
20260901180104 81 356 2.0 7.0 0.00 0.09 0.01 85 1013.0
20260901175103 82 42 1.0 5.0 0.00 0.09 0.01 84 1012.9
20260901174103 81 32 2.0 6.0 0.00 0.09 0.01 85 1012.8
20260901173603 81 50 2.0 7.0 0.00 0.12 0.01 84 1012.7
20260901173104 82 63 3.0 7.0 0.00 0.14 0.01 84 1012.6
20260901172604 82 11 3.0 8.0 0.00 0.14 0.01 86 1012.6
20260901172103 81 33 2.0 7.0 0.00 0.15 0.01 85 1012.6
20260901171603 81 57 1.0 3.0 0.00 0.15 0.01 85 1012.5
20260901171104 81 43 1.0 5.0 0.00 0.15 0.01 85 1012.5
20260901170603 81 39 1.0 5.0 0.00 0.15 0.01 85 1012.5
20260901170104 81 51 0.0 3.0 0.00 0.15 0.01 82 1012.5
20260901165603 81 19 0.0 6.0 0.00 0.15 0.01 83 1012.5
20260901165104 81 37 1.0 3.0 0.00 0.15 0.01 83 1012.6
20260901164104 81 323 1.0 3.0 0.00 0.15 0.01 84 1012.5
20260901163604 81 334 3.0 7.0 0.00 0.15 0.01 84 1012.7
20260901163103 81 309 1.0 3.0 0.00 0.15 0.01 84 1012.6
20260901162604 81 309 1.0 3.0 0.00 0.15 0.01 84 1012.5
20260901162103 81 17 1.0 3.0 0.00 0.15 0.01 82 1012.5
20260901161603 81 21 1.0 3.0 0.00 0.16 0.01 83 1012.5
20260901155604 82 357 2.0 7.0 0.00 0.16 0.01 83 1012.5
20260901155103 82 347 1.0 9.0 0.00 0.16 0.01 80 1012.5
20260901154604 83 322 5.0 7.0 0.00 0.16 0.01 80 1012.4
20260901153103 83 295 2.0 7.0 0.00 0.16 0.01 84 1012.4
20260901152604 83 151 1.0 6.0 0.00 0.16 0.01 83 1012.5
20260901152103 83 314 1.0 3.0 0.00 0.19 0.01 84 1012.4
20260901151603 82 215 1.0 2.0 0.00 0.19 0.01 82 1012.4
20260901151103 81 6 1.0 2.0 0.00 0.19 0.01 85 1012.3
20260901150603 81 320 2.0 5.0 0.00 0.19 0.01 82 1012.3
20260901150104 81 344 1.0 3.0 0.00 0.19 0.01 84 1012.3
20260901145604 80 243 1.0 3.0 0.00 0.19 0.01 84 1012.3
20260901145103 80 339 0.0 3.0 0.00 0.19 0.01 83 1012.3
20260901144604 81 321 1.0 3.0 0.00 0.19 0.01 82 1012.3
20260901144103 81 244 2.0 5.0 0.00 0.19 0.01 83 1012.2
20260901143603 81 319 2.0 3.0 0.00 0.19 0.01 85 1012.3
20260901142604 80 329 3.0 6.0 0.00 0.19 0.01 83 1012.3
20260901142103 80 297 1.0 3.0 0.00 0.19 0.01 85 1012.3
20260901141603 80 346 3.0 6.0 0.00 0.19 0.01 85 1012.3
20260901141103 80 316 3.0 6.0 0.00 0.20 0.01 86 1012.4
20260901140603 79 338 2.0 7.0 0.00 0.20 0.01 86 1012.5
20260901140103 78 351 6.0 9.0 0.00 0.20 0.01 86 1012.4
20260901135603 78 349 5.0 8.0 0.00 0.20 0.01 87 1012.4
20260901134603 78 356 6.0 9.0 0.00 0.21 0.01 88 1012.3
20260901134104 78 326 3.0 9.0 0.00 0.21 0.01 88 1012.3
20260901133603 78 321 6.0 12.0 0.00 0.22 0.01 88 1012.4
20260901133104 77 323 3.0 12.0 0.00 0.22 0.01 88 1012.4
20260901132103 77 309 3.0 8.0 0.00 0.23 0.01 90 1012.4
20260901131603 77 312 6.0 9.0 0.00 0.25 0.01 92 1012.5
20260901131104 77 329 4.0 7.0 0.00 0.27 0.01 94 1012.5
20260901130604 76 307 2.0 7.0 0.00 0.28 0.01 95 1012.5
20260901125603 75 318 4.0 9.0 0.00 0.35 0.01 97 1012.7
20260901125103 75 330 3.0 7.0 0.00 0.38 0.01 98 1012.7
20260901124603 74 330 3.0 7.0 0.00 0.38 0.01 99 1012.7
20260901123603 74 325 4.0 6.0 0.00 0.39 0.01 99 1012.7
20260901123104 73 345 3.0 7.0 0.00 0.39 0.01 100 1012.7
20260901122605 73 332 4.0 8.0 0.00 0.39 0.01 100 1012.6
20260901122104 73 330 2.0 6.0 0.00 0.41 0.01 100 1012.6
20260901121603 72 340 2.0 3.0 0.00 0.42 0.01 100 1012.6
20260901115604 72 292 2.0 3.0 0.00 0.59 0.01 100 1012.3
20260901114104 71 282 1.0 3.0 0.00 0.63 0.01 100 1012.3